sat.trackr.live / text

‹ back to catalog

ASTRA 1KR

NORAD 29055 · 2006-012A

PAYLOAD ACTIVE UNKNOWN

§ Identity

Operator
Country
SES
Launch date
2006-04-20
Launch site
AFETR
Launch vehicle
Mass (kg)
RCS (m²)
14.43

Purposes: comms

External: N2YO · Heavens-Above · Gunter

§ Orbital elements

Epoch: 2026-09-19T15:21:00.645120Z

Period
1,436.11 min
Inclination
0.7107°
Eccentricity
0.0003532
Mean motion
1.00271059 rev/d
Perigee alt
35,771.9 km
Apogee alt
35,801.7 km
Semi-major
42,164.9 km
B*
0.0000e+0
RAAN
82.6252°
Arg perigee
92.3165°
Mean anomaly
72.8581°
Rev number
4,664

§ Raw data

ASTRA 1KR1 29055U 06012A   26262.63959080  .00000115  00000+0  00000+0 0  99932 29055   0.7107  82.6252 0003532  92.3165  72.8581  1.00271059 46648

JSON: /api/v1/satellites/29055 · /tle

For live sub-satellite position, see the globe view (requires WebGL).

§ Visibility from observer

Set your observer location to see the next 7 days of passes ≥ 10°. The values pass through the URL so the page stays shareable.

No JS? Fill the form by hand. The geolocation button needs JavaScript.